Location: Ingoldesthorpe
(52.8667°N, 0.5167°E)
Time: 20:03:02
(UTC+00:00)

NOSS 3-1 (A) - Pass Details

Date: 19 May 2025
Orbit: 639 x 1568 km, 63.4° (Epoch: 20 June)

Event Time Altitude Azimuth Distance (km) Brightness Sun altitude
Exits shadow 22:37:39 - 218° (SW) 2,465 5.3 -15.3°
Reaches altitude 10° 22:38:23 10° 218° (SW) 2,180 5.0 -15.3°
Maximum altitude 22:43:17 77° 133° (SE) 825 3.0 -15.5°
Drops below altitude 10° 22:49:21 10° 48° (NE) 2,673 6.1 -15.8°
Sets 22:52:13 0° 48° (NE) 3,774 7.0 -15.9°
